This is the latest recevied weather packets stored in our database for station/object W0VI. If no packets are shown the sender has not sent any weather packets the latest 10 day(s).
| Time | Temp. | Humidity | Pressure | Rain* | Wind** | Luminosity | Snow |
|---|---|---|---|---|---|---|---|
| 1777739757 | 13.89° C | 38% | 1017.1 hPa | 0 mm | - | 720 W/m² | - |
| 1777739454 | 13.89° C | 37% | 1017.4 hPa | 0 mm | - | 745 W/m² | - |
| 1777739151 | 13.33° C | 36% | 1017.5 hPa | 0 mm | - | 712 W/m² | - |
| 1777738848 | 13.33° C | 37% | 1017.4 hPa | 0 mm | - | 725 W/m² | - |
| 1777738545 | 12.78° C | 37% | 1017.6 hPa | 0 mm | - | 708 W/m² | - |
| 1777738242 | 12.78° C | 38% | 1017.6 hPa | 0 mm | - | 740 W/m² | - |
| 1777737940 | 13.33° C | 39% | 1017.6 hPa | 0 mm | - | 666 W/m² | - |
| 1777737638 | 13.33° C | 38% | 1017.6 hPa | 0 mm | - | 705 W/m² | - |
| 1777737337 | 12.78° C | 39% | 1018 hPa | 0 mm | - | 713 W/m² | - |
| 1777737033 | 12.78° C | 40% | 1018 hPa | 0 mm | - | 737 W/m² | - |
| 1777736729 | 12.78° C | 38% | 1018 hPa | 0 mm | - | 728 W/m² | - |
| 1777736101 | 12.22° C | 39% | 1018 hPa | 0 mm | - | 613 W/m² | - |
| 1777735798 | 12.78° C | 38% | 1018 hPa | 0 mm | - | 603 W/m² | - |
| 1777735495 | 12.22° C | 40% | 1018.1 hPa | 0 mm | - | 665 W/m² | - |
| 1777735193 | 12.22° C | 41% | 1018.2 hPa | 0 mm | - | 639 W/m² | - |
| 1777734890 | 12.22° C | 42% | 1018.1 hPa | 0 mm | - | 613 W/m² | - |
| 1777734587 | 11.67° C | 42% | 1018 hPa | 0 mm | - | 524 W/m² | - |
| 1777734284 | 12.22° C | 41% | 1018.1 hPa | 0 mm | - | 447 W/m² | - |
| 1777733980 | 11.67° C | 43% | 1018.2 hPa | 0 mm | - | 459 W/m² | - |
| 1777733677 | 11.67° C | 42% | 1018.2 hPa | 0 mm | - | 494 W/m² | - |
| 1777733373 | 11.67° C | 43% | 1018.3 hPa | 0 mm | - | 478 W/m² | - |
| 1777733070 | 11.11° C | 46% | 1018.4 hPa | 0 mm | - | 494 W/m² | - |
| 1777732766 | 11.11° C | 46% | 1018.5 hPa | 0 mm | - | 480 W/m² | - |
| 1777732463 | 11.11° C | 46% | 1018.2 hPa | 0 mm | - | 454 W/m² | - |
| 1777732161 | 10.56° C | 47% | 1018.3 hPa | 0 mm | - | 373 W/m² | - |
* Rain latest hour (hover to see other rain measurements)
** Current wind speed in m/s (hover to see current wind gust speed)